History for Miami, FL

Tuesday, November 27, 2012 — View Current Conditions

Jump to Data:

Date:
Airport Code:
Recently Viewed Airport Codes: KMIA
Daily Summary
  Actual Average Record
Temperature
Mean Temperature 75°F 73°F  
Max Temperature 81°F 80°F 87°F (1940)
Min Temperature 68°F 66°F 42°F (1949)
Degree Days
Heating Degree Days 0 0  
Month to date heating degree days 1 0  
Since 1 July heating degree days 1 0  
Cooling Degree Days 10 8  
Month to date cooling degree days 177 276  
Year to date cooling degree days 4416 4348  
Growing Degree Days 24 (Base 50)    
Moisture
Dew Point 64°F    
Average Humidity 71    
Maximum Humidity 84    
Minimum Humidity 58    
Precipitation
Precipitation 0.01 in 0.09 in 1.99 in (1920)
Month to date precipitation 0.25 3.01  
Year to date precipitation 86.18 59.60  
Snow
Snow 0.00 in in in ()
Month to date snowfall 0.0  
Since 1 July snowfall 0.0  
Since 1 September snowfall 0.0  
Snow Depth 0.00 in    
Sea Level Pressure
Sea Level Pressure 30.15 in    
Wind
Wind Speed 8 mph (ESE)    
Max Wind Speed 14 mph    
Max Gust Speed 20 mph    
Visibility 10 miles    
Events Rain    
T = Trace of Precipitation, MM = Missing Value Source: NWS Daily Summary

Show full METARS

(help) - Comma Delimited File

Hourly Observations

Time(EST) Temperature Dew Point Humidity Sea Level Pressure Visibility Wind Direction Wind Speed Gust Speed Precipitation Events Conditions
12:53 AM 70.0°F 62.1°F 76% 30.18 in 10.0 miles ESE 4.6 mph - N/A   Scattered Clouds
1:53 AM 70.0°F 61.0°F 73% 30.17 in 10.0 miles East 4.6 mph - N/A   Mostly Cloudy
2:53 AM 68.0°F 61.0°F 78% 30.16 in 10.0 miles East 5.8 mph - N/A   Scattered Clouds
3:53 AM 72.0°F 62.1°F 71% 30.15 in 10.0 miles East 8.1 mph - N/A   Scattered Clouds
4:53 AM 70.0°F 63.0°F 78% 30.14 in 10.0 miles East 4.6 mph - N/A   Mostly Cloudy
5:53 AM 70.0°F 64.0°F 81% 30.15 in 10.0 miles East 3.5 mph - N/A   Mostly Cloudy
6:53 AM 71.1°F 64.0°F 78% 30.16 in 10.0 miles East 8.1 mph - N/A   Overcast
7:53 AM 72.0°F 64.9°F 78% 30.18 in 10.0 miles SE 5.8 mph - 0.00 in Rain Light Rain
8:00 AM 73.4°F 64.4°F 73% 30.18 in 10.0 miles East 4.6 mph - 0.00 in Rain Light Rain
8:53 AM 73.0°F 66.0°F 79% 30.19 in 10.0 miles ESE 5.8 mph - 0.01 in Rain Light Rain
9:47 AM 77.0°F 66.2°F 69% 30.20 in 10.0 miles SE 9.2 mph - N/A   Mostly Cloudy
9:53 AM 77.0°F 66.0°F 69% 30.20 in 10.0 miles SE 12.7 mph 17.3 mph 0.00 in   Mostly Cloudy
10:53 AM 79.0°F 64.0°F 60% 30.19 in 10.0 miles SE 9.2 mph - N/A   Mostly Cloudy
11:53 AM 80.1°F 64.0°F 58% 30.17 in 10.0 miles SE 11.5 mph - N/A   Mostly Cloudy
12:53 PM 79.0°F 64.0°F 60% 30.14 in 10.0 miles SE 15.0 mph 18.4 mph N/A   Mostly Cloudy
1:53 PM 79.0°F 64.0°F 60% 30.13 in 10.0 miles SE 8.1 mph - N/A   Overcast
2:53 PM 78.8°F 64.4°F 61% 30.11 in 10.0 miles SE 10.4 mph - N/A   Mostly Cloudy
3:53 PM 77.0°F 64.0°F 64% 30.11 in 10.0 miles SE 10.4 mph - N/A   Mostly Cloudy
4:53 PM 75.9°F 64.0°F 67% 30.12 in 10.0 miles SSE 5.8 mph - N/A   Mostly Cloudy
5:53 PM 75.0°F 64.9°F 71% 30.13 in 10.0 miles SE 5.8 mph - N/A   Mostly Cloudy
6:53 PM 73.9°F 64.9°F 73% 30.14 in 10.0 miles SSE 4.6 mph - N/A   Mostly Cloudy
7:53 PM 73.0°F 64.9°F 76% 30.15 in 10.0 miles Variable 3.5 mph - N/A   Mostly Cloudy
8:53 PM 73.9°F 64.9°F 73% 30.15 in 10.0 miles Calm Calm - N/A   Overcast
9:53 PM 72.0°F 64.0°F 76% 30.15 in 10.0 miles Calm Calm - N/A   Mostly Cloudy
10:53 PM 71.1°F 64.0°F 78% 30.15 in 10.0 miles Calm Calm - N/A   Mostly Cloudy
11:53 PM 69.1°F 64.0°F 84% 30.14 in 10.0 miles Calm Calm - N/A   Mostly Cloudy